Location: Ernsee
(50.8780°N, 12.0389°E)
Time: 21:42:31
(UTC+00:00)

NOSS 3-4 (C) - Pass Details

Date: 20 January 2020
Orbit: 905 x 1307 km, 63.4° (Epoch: 06 February)

Event Time Altitude Azimuth Distance (km) Brightness Sun altitude
Rises 05:55:07 0° 216° (SW) 3,523 6.3 -10.6°
Reaches altitude 10° 05:57:34 10° 214° (SW) 2,598 5.6 -10.3°
Maximum altitude 06:03:33 77° 130° (SE) 976 3.7 -9.4°
Drops below altitude 10° 06:10:01 10° 46° (NE) 2,786 6.2 -8.4°
Sets 06:12:43 0° 45° (NE) 3,796 6.9 -8.0°
